Date String (YYYY-MM-DD hh:mm:ss) UTC,Instrument flags,Ambient pressure (hPa),Sample flow (lpm),Bypass flow (lpm),Sample temperature (°C),Ambient temperature (°C),ASC tube jacket temperature (°C),LED temperature (°C),Box temperature (°C),Sample RH (%),Span deviation,Mass concentration (μg/m³),Mass concentration (μg/m³),Mass concentration (μg/m³)
DateTimeUTC,F1_M11,P_M11,Q1_M11,Q2_M11,T1_M11,T2_M11,T3_M11,T4_M11,T5_M11,U1_M11,ZSPAN_M11,X0_M11,X2_M11,X1_M11
2022-12-04 22:00:00,,0820.6,5.01,0.00,27.5,26.3,00.0,36.4,29.4,12.3,0000.8,0018.06,0009.78,0008.94
2022-12-04 22:01:00,,0820.6,4.99,0.00,27.5,26.3,00.0,36.4,29.4,12.4,0000.7,0018.59,0009.79,0008.94
2022-12-04 22:02:00,,0820.6,4.99,0.00,27.5,26.3,00.0,36.4,29.4,12.3,0001.2,0018.05,0009.83,0008.96
2022-12-04 22:03:00,,0820.7,4.99,0.00,27.5,26.4,00.0,36.4,29.4,12.2,0001.4,0017.09,0009.90,0009.01
2022-12-04 22:04:00,,0820.7,5.01,0.00,27.5,26.4,00.0,36.4,29.4,12.3,0001.8,0016.67,0009.93,0009.04
2022-12-04 22:05:00,,0820.6,5.01,0.00,27.6,26.4,00.0,36.4,29.4,12.2,0001.8,0017.34,0009.96,0009.07
2022-12-04 22:06:00,,0820.3,5.00,0.00,27.6,26.5,00.0,36.4,29.5,12.2,0001.8,0017.90,0010.00,0009.10
2022-12-04 22:07:00,,0820.6,5.00,0.00,27.6,26.4,00.0,36.4,29.4,12.3,0001.4,0017.63,0010.03,0009.13
2022-12-04 22:08:00,,0820.8,4.99,0.00,27.6,26.4,00.0,36.4,29.4,12.4,0000.5,0017.64,0010.05,0009.16
2022-12-04 22:09:00,,0820.6,5.00,0.00,27.6,26.5,00.0,36.4,29.4,12.3,-000.1,0016.80,0010.04,0009.19
2022-12-04 22:10:00,,0820.7,5.00,0.00,27.6,26.5,00.0,36.5,29.5,12.3,0000.1,0016.66,0010.03,0009.21
2022-12-04 22:11:00,,0820.5,5.00,0.00,27.6,26.5,00.0,36.5,29.5,12.4,0000.1,0017.63,0010.08,0009.23
2022-12-04 22:12:00,,0820.4,5.00,0.00,27.6,26.5,00.0,36.5,29.5,12.3,0000.2,0017.16,0010.10,0009.27
2022-12-04 22:13:00,,0820.5,5.00,0.00,27.6,26.5,00.0,36.5,29.5,12.4,0000.2,0016.91,0010.12,0009.31
2022-12-04 22:14:00,,0820.6,5.00,0.00,27.6,26.5,00.0,36.5,29.5,12.4,0000.1,0017.25,0010.16,0009.33
2022-12-04 22:15:00,,0820.6,5.00,0.00,27.6,26.4,00.0,36.5,29.5,12.3,-000.0,0017.29,0010.18,0009.35
2022-12-04 22:16:00,,0820.6,4.98,0.00,27.6,26.4,00.0,36.5,29.5,12.4,-000.2,0017.55,0010.22,0009.38
2022-12-04 22:17:00,,0820.6,5.00,0.00,27.6,26.4,00.0,36.5,29.5,12.6,-000.6,0017.07,0010.25,0009.39
2022-12-04 22:18:00,,0820.4,5.02,0.00,27.6,26.4,00.0,36.5,29.5,12.6,-000.7,0017.32,0010.30,0009.42
2022-12-04 22:19:00,,0820.4,5.00,0.00,27.6,26.5,00.0,36.5,29.5,12.7,-000.9,0017.52,0010.38,0009.47
2022-12-04 22:20:00,,0820.5,4.99,0.00,27.6,26.5,00.0,36.5,29.5,12.6,-000.5,0017.67,0010.45,0009.51
2022-12-04 22:21:00,,0820.5,4.99,0.00,27.6,26.5,00.0,36.5,29.5,12.5,-000.4,0017.76,0010.55,0009.55
2022-12-04 22:22:00,,0820.6,5.00,0.00,27.7,26.5,00.0,36.5,29.5,12.4,-000.2,0016.88,0010.61,0009.61
2022-12-04 22:23:00,,0820.6,5.01,0.00,27.7,26.6,00.0,36.5,29.6,12.4,0000.5,0016.73,0010.66,0009.64
2022-12-04 22:24:00,,0820.5,5.00,0.00,27.7,26.6,00.0,36.6,29.6,12.4,0000.7,0016.82,0010.70,0009.67
2022-12-04 22:25:00,,0820.6,5.00,0.00,27.7,26.6,00.0,36.6,29.6,12.5,0000.5,0016.60,0010.68,0009.68
2022-12-04 22:26:00,,0820.4,4.99,0.00,27.7,26.6,00.0,36.6,29.6,12.5,0000.1,0016.77,0010.71,0009.71
2022-12-04 22:27:00,,0820.5,4.99,0.00,27.7,26.6,00.0,36.6,29.6,12.6,0000.1,0016.65,0010.71,0009.76
2022-12-04 22:28:00,,0820.3,5.00,0.00,27.7,26.6,00.0,36.6,29.6,12.5,0000.7,0016.72,0010.73,0009.78
2022-12-04 22:29:00,,0820.2,5.00,0.00,27.7,26.6,00.0,36.6,29.6,12.4,0000.8,0016.58,0010.73,0009.81
2022-12-04 22:30:00,,0820.6,5.01,0.00,27.7,26.6,00.0,36.6,29.6,12.5,0000.5,0016.58,0010.72,0009.83
2022-12-04 22:31:00,,0820.6,5.00,0.00,27.8,26.6,00.0,36.6,29.6,12.6,0000.9,0016.87,0010.74,0009.83
2022-12-04 22:32:00,,0820.2,5.00,0.00,27.8,26.7,00.0,36.6,29.7,12.7,0000.7,0016.67,0010.68,0009.83
2022-12-04 22:33:00,,0819.9,5.00,0.00,27.8,26.6,00.0,36.6,29.6,12.8,0000.4,0016.62,0010.63,0009.79
2022-12-04 22:34:00,,0820.0,5.01,0.00,27.8,26.6,00.0,36.6,29.6,12.7,0000.4,0016.45,0010.58,0009.79
2022-12-04 22:35:00,,0820.3,5.00,0.00,27.7,26.5,00.0,36.6,29.6,12.7,-000.5,0016.43,0010.51,0009.77
2022-12-04 22:36:00,,0820.5,5.00,0.00,27.8,26.5,00.0,36.6,29.6,12.7,0000.1,0017.17,0010.54,0009.75
2022-12-04 22:37:00,,0820.4,5.00,0.00,27.8,26.6,00.0,36.6,29.6,12.8,0000.2,0017.73,0010.55,0009.74
2022-12-04 22:38:00,,0820.3,4.99,0.00,27.8,26.6,00.0,36.7,29.6,12.9,-000.1,0017.59,0010.55,0009.70
2022-12-04 22:39:00,,0820.4,5.00,0.00,27.8,26.6,00.0,36.7,29.7,13.1,0000.3,0017.51,0010.52,0009.68
2022-12-04 22:40:00,,0820.3,5.01,0.00,27.8,26.6,00.0,36.7,29.7,13.1,0000.3,0018.16,0010.50,0009.65
2022-12-04 22:41:00,,0820.2,5.00,0.00,27.8,26.7,00.0,36.7,29.7,12.9,0000.9,0018.45,0010.48,0009.62
2022-12-04 22:42:00,,0820.3,4.99,0.00,27.8,26.7,00.0,36.7,29.7,12.9,0000.5,0018.27,0010.43,0009.60
2022-12-04 22:43:00,,0820.6,4.99,0.00,27.8,26.7,00.0,36.7,29.7,12.8,0001.2,0018.32,0010.42,0009.59
2022-12-04 22:44:00,,0820.5,5.01,0.00,27.8,26.7,00.0,36.7,29.7,12.8,0001.4,0018.28,0010.42,0009.59
2022-12-04 22:45:00,,0820.3,5.01,0.00,27.8,26.7,00.0,36.7,29.7,12.8,0001.0,0018.75,0010.50,0009.60
2022-12-04 22:46:00,,0820.3,5.00,0.00,27.8,26.7,00.0,36.7,29.7,12.9,0001.0,0019.46,0010.54,0009.59
2022-12-04 22:47:00,,0820.2,4.99,0.00,27.9,26.7,00.0,36.7,29.8,12.9,0000.9,0018.78,0010.50,0009.58
2022-12-04 22:48:00,,0820.0,5.00,0.00,27.9,26.7,00.0,36.7,29.8,12.7,0001.2,0018.30,0010.49,0009.59
2022-12-04 22:49:00,,0819.9,5.00,0.00,27.9,26.7,00.0,36.7,29.8,12.7,0001.6,0017.90,0010.48,0009.60
2022-12-04 22:50:00,,0820.0,5.01,0.00,27.9,26.7,00.0,36.7,29.8,12.6,0001.3,0017.87,0010.48,0009.60
2022-12-04 22:51:00,,0820.1,5.00,0.00,27.9,26.7,00.0,36.7,29.8,12.7,0001.3,0017.94,0010.46,0009.58
2022-12-04 22:52:00,,0820.3,5.00,0.00,27.9,26.7,00.0,36.7,29.7,12.8,0001.7,0017.52,0010.44,0009.55
2022-12-04 22:53:00,,0820.2,5.01,0.00,27.9,26.7,00.0,36.8,29.7,12.7,0001.5,0017.45,0010.44,0009.53
2022-12-04 22:54:00,,0820.0,5.00,0.00,27.9,26.7,00.0,36.8,29.8,12.6,0001.3,0017.58,0010.47,0009.50
2022-12-04 22:55:00,,0819.9,5.00,0.00,27.9,26.7,00.0,36.8,29.8,12.6,0000.9,0017.91,0010.46,0009.46
2022-12-04 22:56:00,,0820.0,5.00,0.00,27.9,26.7,00.0,36.8,29.8,12.5,0001.6,0017.87,0010.38,0009.42
2022-12-04 22:57:00,,0819.9,4.99,0.00,27.9,26.7,00.0,36.8,29.8,12.5,0001.5,0018.16,0010.32,0009.39
2022-12-04 22:58:00,,0819.9,5.00,0.00,27.9,26.7,00.0,36.8,29.8,12.6,0001.1,0018.47,0010.32,0009.36
2022-12-04 22:59:00,,0820.0,4.99,0.00,27.9,26.7,00.0,36.8,29.8,12.6,0000.6,0019.07,0010.29,0009.31
